Flag for Germany Weather past 2 weeks in Augsburg, Bavaria, Germany

37 °F

Partly sunny.

Feels Like: 30 °F
Forecast: 33 / 39 °F
Wind: 10 mph from Southwest

Location: Augsburg Airport

Current Time: Nov 25, 2015 at 2:13:27 PM

Latest Report: Nov 25, 2015 at 1:50 PM

Visibility: N/A

Pressure: 29.74 "Hg

Humidity: 93%

Dew point: 36 °F

Location of AugsburgLocation

Historic Weather in Augsburg — Graph


Augsburg temperature yesterday

Maximum temperature yesterday: 37 °F (at 2:20 PM)
Minimum temperature yesterday: 23 °F (at 6:20 AM)
Average temperature yesterday: 31 °F

Past Weeks' High & Low Weather Summary

High64 °F (Nov 10, 1:20 PM)100% (Nov 11, 7:50 PM)30.45 "Hg (Nov 11, 7:50 PM)
Low23 °F (Nov 24, 6:20 AM)34% (Nov 10, 1:20 PM)29.39 "Hg (Nov 21, 3:20 PM)
Average47 °F72%30.07 "Hg
* Reported Nov 10 12:20 PM — Nov 25 12:50 PM, Augsburg, Weather by CustomWeather, © 2015

Note: Actual official high and low records may vary slightly from our data, if they occured in-between our weather recording intervals... More about our weather records


Augsburg weather history for previous 24 hours

Time TempWeatherWind HumidityBarometerVisibility
12:50 PM
Wed, Nov 25
37 °FMostly cloudy.12 mph93%29.74 "HgN/A
12:20 PM37 °FMostly cloudy.13 mph93%29.77 "HgN/A
11:50 AM36 °FMostly cloudy.9 mph100%29.77 "HgN/A
11:20 AM36 °FLight rain. Mostly cloudy.10 mph100%29.77 "HgN/A
10:50 AM36 °FLight rain. Mostly cloudy.10 mph100%29.80 "Hg5 mi
10:20 AM36 °FMore clouds than sun.8 mph93%29.80 "HgN/A
9:50 AM36 °FLow clouds.8 mph93%29.80 "HgN/A
9:20 AM36 °FLow clouds.5 mph93%29.80 "HgN/A
8:50 AM34 °FDrizzle. More clouds than sun.6 mph100%29.80 "HgN/A
7:50 AM34 °FLight snow. Partly sunny.8 mph100%29.80 "Hg4 mi
6:50 AM34 °FLight snow. Passing clouds.9 mph93%29.80 "Hg4 mi
6:20 AM34 °FLight snow. Passing clouds.8 mph93%29.83 "Hg4 mi
5:50 AM32 °FPassing clouds.8 mph100%29.83 "Hg4 mi
8:50 PM
Tue, Nov 24
28 °FClear.5 mph74%30.04 "Hg10 mi
8:20 PM30 °FClear.7 mph69%30.04 "Hg10 mi
7:50 PM30 °FClear.8 mph69%30.04 "Hg10 mi
7:20 PM28 °FClear.5 mph74%30.07 "Hg10 mi
6:50 PM30 °FClear.3 mph69%30.07 "Hg10 mi
6:20 PM30 °FClear.5 mph75%30.07 "Hg10 mi
5:50 PM28 °FClear.6 mph74%30.07 "Hg10 mi
5:20 PM30 °FClear.5 mph69%30.09 "Hg10 mi
4:50 PM32 °FClear.6 mph69%30.09 "Hg10 mi
4:20 PM34 °FSunny.8 mph65%30.09 "Hg10 mi
3:50 PM34 °FSunny.6 mph65%30.09 "Hg10 mi
3:20 PM36 °FSunny.7 mph56%30.12 "Hg10 mi
2:50 PM36 °FPassing clouds.8 mph60%30.12 "HgN/A
2:20 PM37 °FPassing clouds.6 mph56%30.15 "HgN/A
Weather by CustomWeather, © 2015

See weather overviewHow to use our weather pages